Retour au catalogue

STARLINK-33887

ActifCommunicationsVLEO
NORAD 63680·PAYLOAD·🇺🇸 United States

Lancé Apr 28, 2025 depuis Cape Canaveral Space Force Station

Loading…

Prochains Passages (prochaines 24 heures)

TLE

FraisSource: CelesTrak SupGP

Époque: Sep 15, 2026, 03:03 UTC

1 63680C 25085S   26258.12756944 -.00019430  00000+0 -70361-3 0  2580
2 63680  43.0033  40.6219 0001333 264.7199 221.7932 15.27595594    17

Suivez STARLINK-33887 en temps réel avec AllMySat

Download on the App Store